Location: Berg
(48.5667°N, 13.9833°E)
Time: 00:18:47
(UTC+00:00)

CZ-4C R/B - Pass Details

Date: 09 April 2020
Orbit: 637 x 1365 km, 63.4° (Epoch: 04 June)

Event Time Altitude Azimuth Distance (km) Brightness Sun altitude
Rises 22:39:00 0° 313° (NW) 3,902 6.3 -33.1°
Reaches altitude 10° 22:41:50 10° 304° (WNW) 3,046 5.5 -33.2°
Enters shadow 22:46:58 30° 262° (W) 2,061 4.1 -33.3°
